When you browse on this site, cookies collect data to enhance your experience and personalize the content and advertising you see.
Visit our Privacy Policy to learn more. By continuing to use the site, you agree to this use of cookies and data.

Hourly Weather Cauquenes

Today, 5 July, Sunday

Time Temperature Precipitation Wind Pressure Humidity
00:00 +8°C° 0.2 mm 2 mps 748 mmHg 95%
01:00 +7°C° 0.2 mm 2 mps 749 mmHg 96%
02:00 +7°C° 0.1 mm 2 mps 749 mmHg 96%
03:00 +8°C° 0.1 mm 1 mps 749 mmHg 96%
04:00 +7°C° 0.1 mm 1 mps 750 mmHg 96%
05:00 +7°C° 0.2 mm 1 mps 750 mmHg 96%
06:00 +7°C° 0.2 mm 1 mps 751 mmHg 96%
07:00 +7°C° 0.2 mm 1 mps 751 mmHg 95%
08:00 +8°C° 0.1 mm 1 mps 752 mmHg 93%
09:00 +9°C° 0.1 mm 0 mps 752 mmHg 90%
10:00 +10°C° 0.1 mm 0 mps 753 mmHg 87%
11:00 +11°C° 0.2 mm 1 mps 753 mmHg 83%
12:00 +12°C° 0.2 mm 1 mps 752 mmHg 79%
13:00 +13°C° 0.2 mm 1 mps 752 mmHg 75%
14:00 +12°C° 0.1 mm 1 mps 752 mmHg 77%
15:00 +12°C° 0.1 mm 1 mps 752 mmHg 80%
16:00 +10°C° 0.1 mm 2 mps 752 mmHg 82%
17:00 +9°C° 0 mm 2 mps 752 mmHg 86%
18:00 +8°C° 0 mm 2 mps 752 mmHg 89%
19:00 +8°C° 0 mm 1 mps 752 mmHg 92%
20:00 +8°C° 0 mm 1 mps 751 mmHg 92%
21:00 +8°C° 0 mm 1 mps 751 mmHg 92%
22:00 +7°C° 0 mm 1 mps 751 mmHg 92%
23:00 +7°C° 0 mm 1 mps 750 mmHg 92%

Tomorrow, 6 July, Monday

Time Temperature Precipitation Wind Pressure Humidity
00:00 +7°C° 0 mm 1 mps 750 mmHg 92%
01:00 +7°C° 0 mm 1 mps 750 mmHg 92%
02:00 +7°C° 0 mm 1 mps 750 mmHg 92%
03:00 +7°C° 0 mm 1 mps 749 mmHg 91%
04:00 +7°C° 0 mm 1 mps 749 mmHg 91%
05:00 +6°C° 0 mm 1 mps 749 mmHg 90%
06:00 +6°C° 0 mm 1 mps 749 mmHg 89%
07:00 +6°C° 0 mm 1 mps 749 mmHg 88%
08:00 +7°C° 0 mm 1 mps 749 mmHg 82%
09:00 +8°C° 0 mm 1 mps 749 mmHg 76%
10:00 +9°C° 0 mm 1 mps 749 mmHg 69%
11:00 +10°C° 0 mm 1 mps 748 mmHg 67%
12:00 +10°C° 0 mm 1 mps 748 mmHg 64%
13:00 +11°C° 0 mm 1 mps 748 mmHg 62%
14:00 +11°C° 0 mm 1 mps 747 mmHg 66%
15:00 +10°C° 0 mm 1 mps 747 mmHg 70%
16:00 +10°C° 0 mm 1 mps 747 mmHg 75%
17:00 +9°C° 0 mm 1 mps 748 mmHg 77%
18:00 +8°C° 0 mm 0 mps 748 mmHg 78%
19:00 +7°C° 0 mm 0 mps 748 mmHg 80%
20:00 +7°C° 0 mm 0 mps 748 mmHg 82%
21:00 +6°C° 0 mm 0 mps 749 mmHg 84%
22:00 +6°C° 0 mm 0 mps 749 mmHg 85%
23:00 +6°C° 0 mm 0 mps 749 mmHg 86%

Day after tomorrow, 7 July, Tuesday

Time Temperature Precipitation Wind Pressure Humidity
00:00 +6°C° 0 mm 0 mps 749 mmHg 87%
01:00 +6°C° 0 mm 0 mps 750 mmHg 88%
02:00 +6°C° 0 mm 0 mps 750 mmHg 88%
03:00 +5°C° 0 mm 0 mps 750 mmHg 89%
04:00 +6°C° 0 mm 1 mps 751 mmHg 89%
05:00 +6°C° 0 mm 1 mps 751 mmHg 89%
06:00 +6°C° 0 mm 1 mps 751 mmHg 89%
07:00 +5°C° 0 mm 1 mps 752 mmHg 89%
08:00 +7°C° 0 mm 1 mps 752 mmHg 81%
09:00 +9°C° 0 mm 1 mps 753 mmHg 73%
10:00 +10°C° 0 mm 2 mps 753 mmHg 66%
11:00 +12°C° 0 mm 2 mps 753 mmHg 61%
12:00 +12°C° 0 mm 3 mps 753 mmHg 57%
13:00 +13°C° 0 mm 4 mps 752 mmHg 52%
14:00 +12°C° 0 mm 3 mps 752 mmHg 57%
15:00 +12°C° 0 mm 3 mps 752 mmHg 61%
16:00 +11°C° 0 mm 3 mps 752 mmHg 66%
17:00 +10°C° 0.2 mm 3 mps 752 mmHg 71%
18:00 +9°C° 0.2 mm 2 mps 753 mmHg 76%
19:00 +8°C° 0.2 mm 2 mps 753 mmHg 81%
20:00 +8°C° 0.7 mm 3 mps 753 mmHg 85%
21:00 +8°C° 0.7 mm 3 mps 753 mmHg 88%
22:00 +8°C° 0.7 mm 3 mps 753 mmHg 91%
23:00 +7°C° 0.3 mm 4 mps 753 mmHg 92%

8 July, Wednesday

Time Temperature Precipitation Wind Pressure Humidity
00:00 +8°C° 0.3 mm 4 mps 753 mmHg 93%
01:00 +8°C° 0.3 mm 5 mps 753 mmHg 93%
02:00 +8°C° 0.3 mm 4 mps 753 mmHg 94%
03:00 +9°C° 0.3 mm 3 mps 753 mmHg 94%
04:00 +9°C° 0.3 mm 2 mps 753 mmHg 94%
05:00 +8°C° 0.1 mm 2 mps 753 mmHg 94%
06:00 +8°C° 0.1 mm 2 mps 753 mmHg 94%
07:00 +9°C° 0.1 mm 1 mps 753 mmHg 94%
08:00 +10°C° 0.2 mm 1 mps 754 mmHg 92%
09:00 +10°C° 0.2 mm 1 mps 754 mmHg 89%
10:00 +11°C° 0.2 mm 1 mps 754 mmHg 86%
11:00 +11°C° 0.2 mm 1 mps 754 mmHg 84%
12:00 +12°C° 0.2 mm 1 mps 754 mmHg 83%
13:00 +12°C° 0.2 mm 1 mps 754 mmHg 81%
14:00 +12°C° 0 mm 1 mps 754 mmHg 81%
15:00 +12°C° 0 mm 1 mps 754 mmHg 81%
16:00 +11°C° 0 mm 1 mps 754 mmHg 82%
17:00 +10°C° 0 mm 1 mps 754 mmHg 84%
18:00 +9°C° 0 mm 1 mps 754 mmHg 86%
19:00 +8°C° 0 mm 1 mps 754 mmHg 88%
20:00 +7°C° 0 mm 1 mps 754 mmHg 89%
21:00 +7°C° 0 mm 1 mps 754 mmHg 89%
22:00 +6°C° 0 mm 1 mps 754 mmHg 90%
23:00 +6°C° 0 mm 1 mps 754 mmHg 90%

9 July, Thursday

Time Temperature Precipitation Wind Pressure Humidity
00:00 +6°C° 0 mm 1 mps 754 mmHg 90%
01:00 +6°C° 0 mm 1 mps 754 mmHg 90%
02:00 +5°C° 0 mm 1 mps 753 mmHg 91%
03:00 +5°C° 0 mm 1 mps 753 mmHg 91%
04:00 +4°C° 0 mm 0 mps 753 mmHg 91%
05:00 +4°C° 0 mm 0 mps 753 mmHg 90%
06:00 +4°C° 0 mm 0 mps 753 mmHg 90%
07:00 +4°C° 0 mm 0 mps 753 mmHg 89%
08:00 +5°C° 0 mm 0 mps 753 mmHg 84%
09:00 +7°C° 0 mm 0 mps 754 mmHg 79%
10:00 +8°C° 0 mm 0 mps 754 mmHg 74%
11:00 +9°C° 0 mm 0 mps 753 mmHg 71%
12:00 +11°C° 0 mm 1 mps 753 mmHg 68%
13:00 +12°C° 0 mm 1 mps 753 mmHg 65%
14:00 +11°C° 0 mm 1 mps 753 mmHg 70%
15:00 +10°C° 0 mm 0 mps 753 mmHg 75%
16:00 +9°C° 0 mm 0 mps 753 mmHg 80%
17:00 +9°C° 0.1 mm 0 mps 753 mmHg 80%
18:00 +8°C° 0.1 mm 0 mps 753 mmHg 80%
19:00 +8°C° 0.1 mm 0 mps 753 mmHg 80%
20:00 +8°C° 0 mm 0 mps 753 mmHg 81%
21:00 +9°C° 0 mm 1 mps 753 mmHg 81%
22:00 +9°C° 0 mm 1 mps 753 mmHg 81%
23:00 +9°C° 0 mm 1 mps 753 mmHg 83%

10 July, Friday

Time Temperature Precipitation Wind Pressure Humidity
00:00 +9°C° 0 mm 1 mps 753 mmHg 85%
01:00 +8°C° 0 mm 0 mps 752 mmHg 86%
02:00 +7°C° 0 mm 0 mps 752 mmHg 88%
03:00 +7°C° 0 mm 0 mps 752 mmHg 90%
04:00 +8°C° 0 mm 1 mps 752 mmHg 92%
05:00 +7°C° 0 mm 0 mps 752 mmHg 92%
06:00 +7°C° 0 mm 0 mps 753 mmHg 93%
07:00 +7°C° 0 mm 0 mps 753 mmHg 93%
08:00 +9°C° 0 mm 0 mps 753 mmHg 90%
09:00 +10°C° 0 mm 0 mps 753 mmHg 86%
10:00 +12°C° 0 mm 0 mps 753 mmHg 83%
11:00 +13°C° 0 mm 0 mps 753 mmHg 78%
12:00 +14°C° 0 mm 0 mps 753 mmHg 74%
13:00 +16°C° 0 mm 1 mps 752 mmHg 69%
14:00 +15°C° 0 mm 1 mps 752 mmHg 73%
15:00 +15°C° 0 mm 1 mps 752 mmHg 77%
16:00 +14°C° 0 mm 1 mps 752 mmHg 81%
17:00 +13°C° 0 mm 1 mps 752 mmHg 84%
18:00 +11°C° 0 mm 0 mps 753 mmHg 87%
19:00 +10°C° 0 mm 0 mps 753 mmHg 90%
20:00 +10°C° 0 mm 0 mps 753 mmHg 90%
21:00 +9°C° 0 mm 0 mps 752 mmHg 90%
22:00 +9°C° 0 mm 0 mps 752 mmHg 89%
23:00 +9°C° 0 mm 0 mps 752 mmHg 90%
Show more